GFSSE_925_temp_000.txt.gz
Temp
22 20 20 20 20 20 20 20 20 21 21 20 20 20 21 21 20 20 20 19 19 19 19 20 20 20 20 21 22 22 22 22 21 21 21 21 21 20 19 19 19 19 19
22 20 20 20 20 20 20 20 19 20 20 20 20 20 20 20 20 19 18 17 17 17 18 18 19 19 20 20 20 21 21 21 20 20 20 20 20 19 19 18 19 19 19
21 21 21 20 20 20 19 19 19 19 19 19 20 20 19 19 19 19 20 20 16 17 18 18 17 19 19 20 20 20 20 20 20 20 20 18 19 19 20 19 18 19 18
21 21 20 20 19 19 19 18 18 18 19 19 19 19 19 19 19 19 20 20 18 17 20 20 18 17 19 19 19 19 19 19 19 20 20 20 19 19 20 20 18 18 18
21 20 20 20 19 19 19 20 19 18 18 18 19 19 19 19 18 18 19 18 17 18 18 17 16 16 18 19 19 18 19 18 19 19 20 21 21 19 19 19 18 18 18
22 20 20 19 19 19 19 18 18 19 18 18 18 18 18 18 18 17 18 18 18 18 18 17 15 16 16 17 18 18 18 18 18 19 19 21 21 19 19 19 18 18 18
21 20 20 20 19 19 19 19 19 19 19 19 19 19 18 18 17 17 17 17 17 17 17 18 18 16 15 17 18 18 17 18 18 18 19 21 20 19 18 19 18 17 18
22 20 20 20 19 19 19 19 19 19 19 18 18 19 19 18 18 18 18 18 17 17 17 17 17 16 16 17 17 17 16 17 17 18 20 21 20 20 18 18 18 17 17
23 23 22 20 20 19 19 19 19 18 18 18 18 18 18 18 17 18 18 17 17 17 16 16 16 16 16 17 17 17 16 17 17 18 19 18 20 19 18 18 18 17 17
23 23 23 23 21 20 19 19 19 18 18 18 17 17 17 17 16 16 16 16 16 17 17 16 15 15 15 16 16 17 17 17 17 17 18 18 18 18 18 17 17 17 17
23 22 21 21 21 20 20 20 19 18 18 18 18 17 17 16 17 15 15 15 16 16 16 16 15 15 15 14 15 16 17 17 17 17 17 17 17 18 18 17 17 17 16
23 23 21 19 19 19 20 20 19 19 18 18 18 17 18 17 16 16 15 15 15 16 16 16 16 16 16 16 15 14 14 16 17 17 17 17 17 17 18 18 17 16 16
23 22 20 19 18 19 20 20 19 18 18 18 17 17 17 15 15 15 14 14 13 14 14 15 15 15 15 14 16 16 14 15 16 17 17 18 18 17 17 18 17 16 16
24 22 20 19 18 19 20 20 19 19 18 18 17 17 17 16 16 15 14 14 13 12 12 12 13 13 13 14 15 14 14 15 16 15 16 15 15 16 16 16 17 16 16
23 22 21 19 18 18 19 18 18 18 18 17 17 17 17 16 15 15 14 14 13 13 13 13 13 13 13 13 14 14 14 13 13 15 15 15 15 15 15 15 15 15 16
23 22 20 19 19 18 19 17 17 17 17 17 16 16 15 15 15 15 15 14 14 13 13 13 12 12 13 13 12 13 13 14 14 13 13 14 14 14 14 14 15 15 15
23 22 20 20 19 18 18 17 17 17 17 16 15 15 15 15 14 15 14 14 14 13 12 12 12 12 12 13 12 12 12 13 13 13 14 14 14 14 13 13 14 15 15
23 22 20 20 19 18 18 18 17 17 17 16 15 14 14 14 14 14 14 14 13 13 13 12 12 12 12 12 12 12 12 13 13 13 14 14 14 14 13 13 14 14 14
22 21 20 19 19 18 18 18 18 17 17 17 16 15 14 14 14 14 14 13 13 13 13 12 12 12 12 12 12 12 12 12 13 13 13 14 13 13 13 14 14 14 14
22 21 20 19 18 18 17 17 17 16 16 16 16 15 14 14 14 14 14 14 13 13 13 12 12 12 12 13 13 12 12 12 13 13 13 13 13 14 14 14 14 14 14
21 20 19 19 18 17 17 16 16 16 16 16 16 16 15 15 14 14 14 14 14 14 13 13 12 12 12 12 13 12 13 13 13 13 13 13 13 14 13 14 14 13 14
20 20 19 18 18 17 17 17 17 17 17 16 16 16 15 14 14 14 14 14 13 13 13 13 12 12 12 12 12 11 10 12 14 13 13 13 14 14 13 13 14 13 13
20 19 19 19 19 18 17 17 17 17 16 16 16 15 14 14 14 14 14 13 13 13 12 12 12 12 12 12 12 11 9 9 10 12 13 13 13 12 13 13 12 13 13
21 20 19 18 19 19 18 17 17 17 16 16 16 16 15 15 14 14 13 13 13 12 12 12 12 11 11 11 11 11 12 11 10 10 12 13 13 13 13 13 13 13 12
21 20 19 18 18 18 18 17 17 16 16 16 15 15 15 14 14 13 13 12 12 11 11 11 10 10 10 10 10 10 11 11 11 10 10 11 13 13 13 13 13 13 12
21 20 19 18 18 18 18 18 17 16 15 15 15 14 14 13 13 12 11 11 10 10 9 9 9 9 9 9 9 9 9 9 9 9 9 10 10 12 12 13 12 12 12

GFSSE_925_temp_003.txt.gz
Temp
20 21 20 19 19 19 19 19 19 19 20 20 20 20 20 20 20 20 20 20 20 19 19 19 18 18 19 20 20 20 21 22 21 21 20 19 19 19 19 19 18 19 19
21 20 20 20 19 19 19 19 19 19 19 19 19 19 19 19 19 19 20 22 22 21 21 19 19 18 18 19 20 20 20 21 21 21 21 20 20 20 20 19 19 18 19
21 20 20 20 20 19 19 18 19 19 19 19 19 19 19 19 19 19 20 20 22 22 22 19 19 17 18 18 19 20 20 20 20 20 20 20 20 20 20 20 19 19 19
20 20 20 21 21 20 19 18 18 19 19 19 19 19 19 19 19 19 20 20 21 22 19 18 16 16 18 16 17 19 19 19 19 19 20 19 19 19 19 19 19 18 18
20 20 20 20 19 19 18 18 18 19 19 19 19 19 19 18 18 19 18 18 19 19 18 15 16 17 19 17 17 17 18 19 19 19 20 19 19 19 19 19 18 18 18
20 20 19 19 19 19 20 19 19 19 19 19 19 19 19 19 19 18 18 17 17 17 16 16 16 18 20 19 20 17 17 18 19 19 19 20 19 20 19 19 18 17 17
20 20 20 20 20 19 20 20 20 20 19 19 18 18 18 18 18 18 18 18 17 17 17 17 17 17 18 17 17 17 16 18 18 19 20 19 19 20 19 19 18 18 17
21 21 21 20 20 19 20 19 19 19 19 18 17 17 17 17 17 16 16 17 17 16 17 17 17 17 17 17 18 16 17 17 18 18 19 18 18 20 19 18 18 18 17
22 22 21 21 20 19 19 19 19 19 19 19 18 17 17 17 17 17 16 16 16 16 17 16 16 16 16 16 16 17 16 17 17 18 17 17 19 19 19 18 18 18 17
23 21 20 20 20 19 19 19 19 19 18 18 17 17 17 17 16 16 16 16 16 16 16 16 16 17 16 16 16 16 16 17 17 17 17 18 18 18 18 18 17 18 17
23 22 22 20 19 19 20 19 19 18 18 17 17 17 16 16 16 15 16 15 15 15 15 15 15 16 16 16 16 16 16 16 16 16 17 17 17 17 18 18 18 18 17
22 22 22 21 20 20 19 19 19 18 18 17 17 17 16 16 16 16 16 15 15 15 15 15 15 15 15 15 16 16 16 16 16 16 16 17 17 17 17 18 18 17 17
22 22 21 20 19 19 20 20 19 18 18 17 17 16 16 16 16 14 14 14 14 14 13 13 13 14 14 14 14 15 15 15 16 16 16 17 17 17 17 17 17 17 17
22 22 21 20 19 19 19 19 19 18 18 17 17 16 16 16 16 14 14 14 14 14 14 13 13 13 13 14 13 13 14 15 16 16 16 16 16 15 16 16 16 17 17
23 21 21 20 19 19 19 19 19 18 18 17 17 17 16 16 15 15 14 14 13 13 13 12 12 12 12 12 12 13 13 13 15 16 15 15 15 15 15 15 16 16 16
24 22 21 20 19 19 18 18 18 18 17 17 17 16 16 15 15 14 14 14 14 13 13 12 12 12 12 12 12 12 12 12 13 14 14 15 15 14 15 15 15 15 15
24 22 21 20 19 19 18 18 17 17 17 17 16 16 15 15 15 14 14 14 13 13 13 12 12 12 12 12 12 12 12 12 13 13 13 14 14 15 14 14 15 15 15
23 22 21 20 20 19 18 18 17 17 17 16 16 16 15 14 14 14 14 14 14 13 13 13 12 12 12 12 12 12 12 12 12 12 13 13 14 14 14 14 14 14 14
23 21 21 20 19 18 18 17 17 17 17 16 16 15 15 14 14 14 14 14 14 13 13 13 13 12 12 12 12 13 13 12 12 13 13 13 13 13 13 14 14 14 14
22 21 20 19 19 18 18 17 17 17 17 17 16 15 15 15 14 14 14 14 14 13 13 13 13 12 12 12 12 12 12 13 13 13 13 13 13 13 13 13 14 14 14
21 20 20 19 18 18 17 17 17 16 16 16 16 16 15 15 14 14 14 14 14 13 13 13 13 12 12 12 12 12 12 12 12 13 13 13 13 13 12 13 13 13 14
20 20 19 19 18 18 17 17 17 16 16 16 16 16 15 15 14 14 14 14 14 13 13 13 12 12 12 12 11 10 7 10 12 12 12 13 13 13 14 13 12 13 13
20 20 20 19 19 18 18 17 16 16 16 16 16 16 15 15 15 14 14 14 14 13 13 12 12 12 11 11 11 10 8 8 9 11 11 12 13 13 13 14 13 13 12
21 21 20 19 19 18 18 17 17 17 16 17 17 17 16 15 15 14 14 14 13 12 12 11 11 11 10 10 10 11 11 10 8 8 10 11 11 12 13 13 13 13 13
21 21 20 20 19 19 19 18 17 17 17 16 16 16 15 15 14 14 13 12 12 11 11 10 10 10 10 9 9 9 9 9 9 8 8 9 10 11 12 12 13 13 13
20 20 20 19 19 19 19 18 18 17 17 16 16 15 14 13 12 12 12 11 11 10 9 9 9 9 9 9 9 8 8 7 7 7 7 8 8 9 10 11 11 12 12

GFSSE_925_temp_006.txt.gz
Temp
18 19 19 19 19 19 19 20 20 20 20 20 20 20 20 20 20 20 20 20 21 21 22 23 22 21 19 18 18 19 20 20 20 19 20 20 20 20 19 19 18 18 19
20 20 20 19 19 19 19 19 20 20 20 20 20 20 20 20 20 20 21 21 22 22 22 22 22 21 20 19 18 18 19 19 20 19 19 19 19 18 19 18 18 18 19
20 20 20 20 19 18 19 19 19 19 19 20 19 19 19 20 20 21 21 21 21 21 20 18 20 19 19 19 18 18 18 19 19 19 19 19 19 19 19 18 18 18 18
20 20 20 19 19 19 19 19 19 19 20 20 19 19 19 19 19 20 20 20 20 19 18 18 19 19 19 20 20 18 18 18 19 19 20 19 18 18 19 19 19 19 18
20 19 19 19 20 20 20 20 20 20 19 19 19 19 19 18 18 18 18 18 18 18 17 17 18 18 19 18 20 19 18 19 19 19 20 19 19 18 18 19 19 18 18
20 19 20 21 20 20 20 20 19 19 20 19 19 19 18 18 18 17 16 17 17 18 17 16 17 17 18 19 19 20 19 19 18 18 19 19 18 19 18 19 18 18 18
20 20 20 20 20 19 19 19 19 18 19 19 18 18 18 18 18 18 17 17 17 17 17 17 17 17 18 18 18 17 17 18 18 17 18 18 18 18 19 19 19 18 18
21 21 21 20 20 20 20 19 19 19 19 19 19 18 18 18 18 18 17 17 16 16 17 17 17 17 16 16 17 18 17 17 18 17 18 18 18 18 18 19 19 18 18
21 20 20 19 19 19 20 20 19 19 18 18 18 18 18 17 17 17 17 17 16 17 17 17 18 17 16 16 16 16 16 18 17 17 17 18 18 18 17 18 18 18 18
21 20 19 19 19 19 19 19 19 19 18 18 18 18 18 17 17 17 17 17 16 16 16 16 16 16 16 16 16 16 17 16 16 16 17 17 17 18 17 17 18 18 17
20 20 19 19 19 19 19 19 18 19 18 18 18 17 17 16 16 16 16 16 16 16 15 15 15 15 15 15 15 16 16 16 16 16 17 16 17 17 17 17 18 17 17
19 20 20 20 19 18 19 19 18 18 18 17 17 17 16 16 16 15 15 14 14 14 15 15 15 15 15 15 15 15 15 15 15 16 16 16 16 17 17 17 17 17 17
22 21 21 21 20 19 19 19 18 18 17 17 17 16 16 15 15 15 14 14 14 14 13 14 14 14 14 14 14 14 15 15 15 15 15 15 15 16 16 16 16 16 17
21 21 21 21 20 19 19 18 18 17 17 16 16 16 16 16 16 15 15 14 14 14 13 13 13 12 13 13 13 13 13 13 14 14 14 15 15 15 16 16 16 16 16
22 21 20 21 20 19 18 18 18 18 17 17 16 16 16 16 15 15 15 14 14 13 13 13 12 11 12 12 12 12 12 12 12 13 14 14 15 15 15 14 15 15 15
22 21 21 21 20 19 18 18 18 18 17 17 17 16 16 15 15 15 14 14 14 13 13 13 13 13 13 12 12 11 11 12 12 12 12 14 15 14 14 15 15 14 15
23 22 21 20 20 19 18 18 18 17 17 17 17 16 16 15 15 14 14 14 13 13 13 13 13 12 12 12 12 12 12 12 12 12 12 13 13 14 14 14 14 15 14
23 21 21 20 19 19 19 18 17 17 17 17 17 16 16 15 15 14 14 14 13 13 13 13 13 13 12 12 12 12 12 12 13 12 13 13 13 13 14 14 14 14 14
22 21 20 20 19 19 18 18 17 17 17 16 16 16 16 15 15 14 14 14 14 13 13 13 13 13 12 12 12 12 12 12 12 12 12 13 13 12 12 13 14 14 14
21 20 20 20 19 19 18 18 17 17 17 16 16 16 16 15 15 14 14 14 14 13 13 13 13 12 12 12 12 12 12 12 12 12 12 12 12 13 13 12 12 12 13
20 21 20 20 20 19 18 18 17 17 17 16 16 16 15 15 15 15 14 14 13 13 13 13 12 12 12 12 11 11 11 12 12 12 11 12 12 12 12 12 13 13 12
21 21 20 20 20 19 19 18 18 17 17 17 17 16 15 15 15 15 15 14 14 13 13 12 12 12 12 12 11 9 6 10 11 11 11 11 11 11 11 12 13 12 13
21 21 21 21 20 20 19 18 18 17 16 16 16 16 16 16 15 15 14 14 14 13 13 13 12 11 11 11 10 9 6 6 7 10 10 10 10 10 11 11 12 12 12
21 21 20 20 20 19 18 18 17 17 15 17 17 17 16 16 15 14 14 14 14 13 12 11 10 9 9 9 9 9 8 8 5 7 9 9 9 9 10 10 11 11 11
21 21 20 20 20 19 19 18 17 16 16 17 17 16 16 16 15 14 14 13 12 11 11 10 9 9 8 7 7 8 8 8 7 6 6 7 8 8 8 9 9 10 10
19 19 19 19 18 18 18 18 17 17 17 15 16 15 15 15 14 13 12 11 10 9 10 9 8 7 7 7 8 7 7 6 6 5 5 6 6 7 8 8 8 9 10

GFSSE_925_temp_009.txt.gz
Temp
19 19 18 19 19 19 20 20 21 21 20 20 20 20 20 20 20 20 20 20 21 21 20 20 20 20 20 20 20 21 20 19 19 19 20 20 20 19 20 19 18 18 18
19 19 18 18 19 19 20 20 20 20 20 19 20 20 20 20 20 20 20 20 19 18 20 20 20 19 18 19 19 19 20 20 19 19 19 19 19 19 19 19 19 18 18
19 19 19 18 18 19 20 20 20 20 20 19 19 20 19 20 20 20 20 20 19 19 19 19 19 18 19 20 20 20 20 19 19 19 19 19 19 19 19 18 18 18 18
18 19 19 19 19 19 19 19 19 20 20 19 19 19 19 19 19 19 19 19 19 18 18 18 19 19 19 19 20 21 21 21 18 18 19 19 18 18 18 19 18 18 18
20 20 19 20 19 19 20 20 20 20 20 19 19 18 18 18 18 18 18 18 18 18 18 17 18 18 18 19 19 20 20 21 19 18 18 19 18 18 18 18 19 18 18
20 20 20 20 20 21 20 20 20 20 20 20 19 19 18 18 17 17 18 18 18 18 17 16 17 18 18 18 18 18 18 18 18 18 18 18 18 18 18 18 18 19 18
20 20 20 20 20 20 20 20 20 19 19 19 19 19 19 18 18 17 18 18 17 17 17 17 17 18 18 18 17 17 16 17 17 17 18 18 17 18 18 18 18 18 18
21 21 20 20 20 21 20 20 19 19 19 18 18 18 18 18 18 18 17 17 17 17 16 17 17 17 18 17 17 16 16 17 17 17 17 18 18 18 18 17 18 18 18
21 21 20 20 20 20 20 20 19 19 19 19 19 18 18 17 17 17 17 16 16 16 16 16 16 16 17 16 16 16 15 16 16 17 17 17 17 18 18 17 17 18 18
20 20 20 19 19 19 19 19 19 19 18 18 18 18 17 17 17 16 16 15 15 15 16 15 15 15 15 15 15 16 15 15 15 16 17 17 17 17 17 17 17 17 18
19 19 19 19 19 19 19 18 19 18 18 18 18 17 16 16 16 16 15 15 15 15 15 15 15 15 14 15 15 15 15 15 15 16 16 16 16 17 17 17 17 17 17
18 19 19 19 19 18 18 18 18 18 18 17 17 17 16 16 16 16 16 16 15 15 14 14 14 14 14 14 14 15 15 15 14 14 14 15 15 16 15 16 16 16 16
20 19 19 19 19 18 18 18 18 18 17 17 17 17 16 16 16 16 16 16 16 15 15 14 14 14 14 14 14 14 14 14 15 15 14 14 14 15 15 15 16 16 16
19 20 20 19 18 18 19 18 18 17 17 17 17 17 16 16 16 16 15 15 14 14 15 15 14 14 13 13 13 13 12 13 13 13 14 14 14 14 15 15 15 15 16
20 20 20 20 19 20 19 18 17 17 17 16 16 16 16 16 16 15 15 14 14 13 13 13 13 13 13 13 13 12 13 12 12 12 13 13 14 14 14 14 14 15 15
21 21 21 20 19 19 19 18 18 17 17 16 16 16 16 16 16 15 14 14 13 13 13 13 13 13 13 13 13 12 12 12 12 12 13 13 14 14 14 13 14 14 14
22 21 20 20 19 19 19 18 18 17 17 17 16 16 16 16 15 15 14 14 13 13 13 13 13 13 13 12 13 12 12 12 12 12 12 12 13 13 14 13 13 13 14
22 21 19 19 19 19 18 18 18 17 17 17 17 16 16 16 15 15 14 14 14 13 13 13 13 13 12 12 12 12 12 12 12 12 12 12 12 12 13 13 13 13 13
21 20 19 20 20 19 18 18 18 17 17 17 16 16 16 15 15 15 15 14 14 14 14 13 13 13 13 12 12 12 12 12 12 12 12 12 12 12 12 12 12 12 13
20 20 20 20 19 19 18 18 18 17 17 17 17 17 16 15 15 15 15 14 14 14 14 13 13 13 12 12 12 12 12 12 12 12 11 11 11 11 11 12 12 12 12
20 20 20 20 20 19 18 18 18 18 18 17 17 17 17 16 15 14 15 14 14 13 14 13 13 12 12 12 11 11 11 12 11 11 11 11 10 10 10 11 11 11 11
20 20 20 20 20 20 20 20 19 18 18 17 17 17 16 16 16 15 15 14 15 14 13 13 12 12 12 11 10 8 6 9 10 10 10 9 10 10 10 10 10 10 11
20 20 20 20 20 20 19 19 18 17 17 17 17 17 17 16 16 15 15 14 14 14 13 13 13 12 11 10 9 9 6 5 5 9 9 9 9 9 9 9 9 10 10
21 20 20 19 19 18 17 17 17 16 14 16 17 17 17 17 16 15 15 14 14 14 13 12 11 10 10 9 8 8 8 7 4 4 8 8 8 7 7 8 8 8 9
19 19 18 18 18 17 17 17 16 15 16 15 15 14 14 14 14 15 15 13 12 12 11 10 9 8 8 7 7 7 6 6 6 4 4 6 6 6 6 7 7 8 8
17 17 17 17 16 16 15 15 15 15 15 13 14 14 15 14 13 12 12 10 11 9 7 6 5 5 4 4 5 5 5 5 5 4 2 4 4 5 6 6 7 7 7

GFSSE_925_temp_012.txt.gz
Temp
18 18 18 19 20 20 21 20 20 20 20 21 21 21 21 21 21 20 20 20 20 19 19 19 19 20 19 19 20 20 20 20 20 20 20 20 20 20 20 20 20 19 18
18 18 18 18 19 19 20 20 20 19 20 20 20 20 20 20 20 20 20 19 19 19 19 19 20 19 20 20 20 20 21 20 20 20 21 21 20 19 19 19 20 19 18
19 18 18 18 18 19 20 20 19 19 19 20 20 20 20 20 20 19 19 19 18 19 19 19 19 19 19 19 20 20 19 19 19 19 19 19 20 19 19 19 19 19 19
19 19 18 18 19 19 19 20 20 20 20 19 19 19 19 19 19 18 18 18 19 18 18 18 18 18 18 18 18 18 18 18 18 18 18 18 19 18 18 19 18 18 19
19 19 19 19 20 20 20 20 20 20 20 19 19 19 18 18 18 18 18 18 18 17 18 18 18 18 18 18 18 18 18 18 17 17 18 17 18 18 18 18 18 18 18
19 20 20 20 21 21 21 21 21 21 20 20 19 18 18 17 17 18 18 17 17 17 17 17 17 17 17 17 17 17 17 17 17 18 18 18 17 18 18 17 18 18 18
20 20 21 21 21 21 21 21 20 20 19 19 19 19 18 18 18 18 18 18 17 17 17 16 16 16 16 15 15 16 16 16 16 17 17 17 18 18 17 18 18 18 18
21 20 20 20 20 20 20 20 19 19 19 18 17 17 17 17 17 17 17 17 17 16 16 16 16 16 16 16 15 15 16 16 16 17 17 17 18 17 18 18 18 18 18
20 21 21 20 20 19 20 19 19 19 19 18 18 17 17 17 17 16 16 16 16 16 16 15 16 16 16 15 15 15 15 15 15 15 16 17 17 17 17 17 17 17 18
20 20 20 19 19 19 19 19 19 19 18 18 17 17 17 17 17 17 16 16 16 16 16 15 15 15 15 15 15 14 15 15 15 15 15 15 15 16 16 16 17 17 17
19 19 19 19 19 19 19 19 19 18 18 18 18 17 17 17 16 16 16 16 16 16 16 16 15 15 15 15 15 14 14 14 15 15 15 15 16 15 15 15 16 17 17
19 19 19 19 19 19 19 18 18 18 18 18 18 17 17 16 16 16 16 16 15 15 15 15 15 15 15 14 15 15 15 14 14 14 14 14 15 15 15 15 15 15 16
20 19 19 19 19 19 18 18 18 18 18 17 17 17 16 16 16 16 15 15 15 15 14 14 14 14 14 14 14 14 15 14 14 13 13 13 14 14 15 15 15 15 15
19 19 19 20 20 20 18 18 18 18 17 17 17 17 17 16 16 16 16 15 15 15 14 14 14 13 13 13 14 14 14 14 14 13 13 13 13 13 14 14 14 14 15
19 20 20 20 20 19 18 18 18 18 17 17 17 17 16 16 16 16 16 15 15 14 14 13 13 13 13 13 13 13 13 13 13 13 13 13 13 13 14 14 15 14 14
20 20 20 20 18 18 18 18 18 17 17 17 16 16 16 16 16 15 15 15 14 14 14 13 13 14 13 13 13 13 13 13 13 13 13 13 13 13 13 13 14 14 13
20 20 19 19 19 19 19 18 18 18 17 17 17 16 16 16 16 15 15 15 14 13 13 13 13 13 13 13 13 13 13 13 12 12 12 12 12 13 12 12 12 13 13
20 20 19 19 19 19 19 18 18 17 17 17 17 17 16 16 16 16 15 15 15 14 13 13 13 13 13 13 13 13 12 12 12 12 12 12 11 11 12 12 12 12 12
20 20 20 19 19 19 19 18 17 17 17 17 17 17 16 16 15 15 15 15 15 14 13 13 13 13 12 13 12 12 12 12 12 12 12 11 11 11 11 11 11 11 11
20 20 20 20 19 19 19 18 18 18 18 18 18 18 17 16 16 15 15 15 14 14 14 13 13 13 12 12 12 12 12 12 12 11 11 11 11 11 11 10 10 10 11
19 20 20 20 19 19 19 18 18 19 19 18 18 18 17 17 17 15 15 14 14 14 14 14 13 13 12 12 11 11 12 12 11 11 11 11 10 10 10 10 10 10 10
20 20 20 20 19 19 18 17 17 17 17 17 18 18 17 17 17 16 15 15 14 14 14 14 13 12 12 12 11 8 7 8 10 10 10 10 10 9 9 9 9 9 9
19 20 19 18 18 17 16 16 16 16 16 16 17 17 17 16 15 14 15 15 15 14 13 14 13 12 11 11 10 10 5 5 4 9 9 9 9 8 8 8 8 8 8
18 18 17 17 16 15 15 15 15 14 13 15 14 14 14 15 14 13 12 13 13 12 12 12 11 10 9 9 7 8 7 7 5 5 7 7 7 7 7 7 7 7 7
15 15 15 15 15 15 15 14 14 14 13 13 13 13 14 14 14 14 12 11 10 10 9 9 8 8 7 7 6 6 6 6 5 4 4 4 5 6 6 6 6 7 7
15 15 15 16 15 15 15 14 13 12 12 12 13 12 12 13 12 12 12 9 8 7 6 6 5 5 4 3 3 3 3 4 3 3 2 3 4 5 5 5 6 6 6

GFSSE_925_temp_015.txt.gz
Temp
18 18 18 18 19 19 19 19 20 21 20 21 21 21 21 21 21 20 19 19 19 19 19 19 19 19 19 20 20 20 19 19 20 20 20 20 20 20 20 19 19 19 19
19 18 18 18 19 20 20 20 20 20 20 20 21 21 21 21 20 19 19 19 19 19 19 19 19 20 20 19 19 20 19 19 19 19 19 19 19 19 19 19 19 19 19
20 19 19 19 19 20 20 19 20 20 20 20 20 20 20 20 19 19 18 18 18 19 18 19 19 19 19 18 18 18 19 18 18 18 18 19 18 18 19 19 19 19 18
20 19 20 19 20 20 20 20 20 20 20 19 19 19 19 19 18 18 18 18 18 18 18 17 17 18 18 17 17 17 18 18 18 18 18 18 18 17 18 19 18 18 18
20 20 20 20 20 20 20 20 19 19 19 18 18 18 18 18 18 18 18 19 18 18 17 17 17 17 17 17 17 17 17 17 18 18 18 17 18 18 17 18 19 18 17
20 20 19 20 20 20 19 20 19 19 18 18 17 17 17 17 17 17 17 17 17 17 16 17 17 17 17 16 16 17 16 17 17 17 16 17 17 17 18 18 18 18 18
20 19 19 20 20 20 20 20 20 20 19 19 19 19 18 17 17 17 16 16 16 16 16 16 16 16 16 16 16 16 16 16 16 16 17 17 17 17 17 18 18 18 18
20 20 20 19 20 20 20 20 20 19 19 18 18 18 18 17 17 17 17 18 17 17 16 16 16 15 15 15 15 15 16 16 15 15 16 16 16 16 17 17 17 17 18
20 20 19 20 20 20 20 20 19 19 18 18 18 17 17 17 17 17 17 16 16 16 16 16 16 16 15 15 15 15 15 15 15 15 15 16 16 16 17 17 17 17 17
19 19 19 19 20 19 19 19 19 19 18 18 18 18 18 17 17 17 16 16 16 16 16 15 15 15 15 14 14 15 15 15 14 14 15 16 16 16 16 16 16 16 17
18 19 20 20 19 19 18 18 18 18 18 18 18 17 17 17 17 17 17 16 16 16 16 15 15 15 14 14 14 14 15 15 15 14 14 15 15 16 16 16 16 16 17
18 20 20 19 19 19 19 18 18 18 18 18 17 17 17 16 16 16 16 16 15 15 15 15 15 15 15 14 14 14 13 14 14 14 13 14 15 15 14 15 16 16 16
19 19 19 19 19 19 19 18 18 18 18 18 17 17 17 16 16 16 16 16 15 15 15 15 14 14 14 14 14 14 14 13 12 12 13 14 14 14 15 15 14 15 15
19 19 19 19 19 19 18 18 18 18 18 17 17 17 17 16 16 16 16 16 15 15 14 14 14 14 14 14 14 14 14 13 12 12 12 13 13 14 14 14 14 14 14
19 19 19 19 19 19 19 19 18 17 17 17 17 17 17 16 16 16 16 16 15 15 15 14 14 14 14 14 13 13 13 14 13 12 12 13 13 13 14 14 14 13 13
20 20 19 19 19 19 19 18 18 18 17 17 17 17 16 16 16 16 16 16 16 15 14 14 14 14 14 14 13 13 13 13 13 13 12 12 12 12 13 13 13 11 12
20 19 19 20 19 19 19 18 18 18 18 17 17 17 17 17 16 16 16 16 16 15 14 13 13 13 13 13 13 13 13 13 12 12 12 12 12 12 12 12 13 12 12
20 19 19 19 20 19 19 18 18 18 17 17 17 17 17 17 16 16 16 16 16 15 14 13 12 12 13 13 13 12 12 12 12 12 12 12 12 12 12 12 12 12 12
20 19 19 19 19 19 18 18 18 18 18 18 18 17 17 17 17 16 16 16 16 15 14 14 13 13 12 12 12 12 13 12 12 12 11 11 11 11 11 11 11 11 11
19 19 19 19 19 19 18 18 18 18 18 18 18 18 17 16 16 16 16 15 15 14 14 14 13 12 12 12 12 12 11 11 12 11 11 11 11 11 11 10 10 10 11
19 19 20 20 19 18 17 17 17 17 17 18 17 17 16 16 15 15 15 14 14 13 14 14 12 11 11 11 10 12 11 11 10 10 10 10 10 10 11 10 9 9 10
19 18 17 17 16 16 16 15 15 15 16 16 16 16 16 16 15 14 14 13 12 11 11 12 11 11 10 10 12 12 13 13 10 10 9 9 9 9 9 9 9 8 8
16 16 16 15 15 15 15 15 15 15 15 14 14 14 15 14 14 14 14 13 12 10 10 10 10 10 12 11 10 13 13 13 13 10 9 9 8 8 8 8 8 8 8
15 15 15 14 14 14 14 14 13 12 12 12 11 11 12 13 13 13 13 13 11 9 9 9 9 9 9 11 8 8 8 9 12 13 9 8 8 8 7 7 7 7 7
13 14 14 14 14 13 13 13 12 11 10 10 10 10 11 11 12 12 12 12 11 9 7 7 7 7 7 9 8 8 7 7 6 9 11 10 7 6 6 6 6 6 6
14 14 14 14 14 13 13 13 12 11 11 10 10 10 10 9 9 10 10 9 8 6 4 4 4 4 4 4 4 4 5 6 6 5 5 5 5 6 6 6 6 6 6

GFSSE_925_temp_018.txt.gz
Temp
22 20 19 19 20 19 20 20 21 21 21 21 21 21 21 21 20 20 19 19 19 19 19 19 19 20 20 19 19 19 19 19 19 19 19 19 19 19 19 19 20 21 19
21 20 20 20 20 20 20 20 20 20 20 20 20 20 20 20 19 19 19 19 19 19 19 19 19 19 18 18 18 19 19 19 19 19 19 20 20 19 19 19 20 20 19
22 21 20 19 20 19 19 19 19 19 19 20 20 20 19 19 19 19 18 18 18 19 19 19 19 18 18 18 18 18 18 18 19 19 19 21 22 19 18 18 19 19 18
21 21 20 19 19 19 18 18 19 19 18 19 19 19 19 18 19 18 18 18 18 18 18 17 17 17 17 17 17 17 18 18 18 19 20 21 21 19 18 18 18 18 18
21 20 18 19 19 19 19 19 19 19 19 19 19 19 18 18 18 18 18 18 18 17 16 16 16 16 16 17 17 17 17 18 18 19 20 20 20 19 18 18 18 18 18
21 20 20 20 20 20 20 20 20 19 19 18 18 18 18 18 18 18 17 18 18 18 17 17 17 16 16 16 16 16 17 17 18 19 18 18 18 18 18 18 18 18 18
21 20 19 19 19 20 20 19 19 19 19 19 19 18 18 18 17 17 17 17 17 17 16 16 16 16 17 17 17 17 17 17 17 19 20 18 18 17 17 18 17 18 18
21 20 19 19 20 20 20 19 19 19 19 19 19 19 18 18 18 18 17 17 17 17 16 16 16 16 16 16 15 16 16 16 18 19 18 18 16 17 17 17 17 17 18
21 21 21 20 19 19 19 19 18 18 18 18 18 18 18 18 17 17 17 16 16 16 15 15 15 15 15 15 15 15 16 16 17 18 17 18 16 16 16 17 17 18 17
21 21 21 20 20 20 19 19 19 18 18 18 18 17 17 17 17 16 16 16 16 15 15 15 15 15 15 15 15 15 15 16 17 17 18 16 15 15 15 16 17 17 18
21 20 20 21 20 19 19 19 19 18 18 18 17 18 17 18 17 17 16 16 16 16 16 15 15 15 15 15 15 15 15 17 17 18 18 16 15 15 14 15 15 16 17
22 21 21 20 20 19 19 19 18 18 19 18 18 17 18 17 17 16 16 16 16 16 16 16 16 15 15 17 16 16 17 16 16 17 17 15 15 15 14 14 15 15 16
23 23 21 20 19 19 20 20 20 20 19 19 17 17 17 17 17 17 17 17 16 16 16 16 15 16 15 15 16 16 16 15 16 17 16 14 15 14 14 14 14 14 15
24 23 21 20 19 18 20 20 20 20 19 19 19 17 17 18 17 17 17 17 16 17 16 16 16 15 14 14 14 14 15 15 16 16 15 14 14 14 14 14 14 14 14
24 23 22 20 19 19 18 19 19 19 19 19 18 18 17 17 17 17 17 17 17 16 16 16 16 16 15 15 14 14 15 15 15 15 15 13 14 14 14 14 14 14 13
24 23 22 20 19 19 19 18 19 18 19 18 18 18 17 16 17 17 17 17 17 17 16 16 16 15 16 15 14 14 14 15 15 14 15 13 13 13 14 14 14 14 13
24 23 22 20 19 19 19 19 19 19 18 18 18 17 16 16 17 16 17 17 17 17 16 15 15 15 15 15 15 14 14 14 14 14 14 15 14 13 13 13 13 13 13
23 22 21 20 19 19 19 19 19 19 18 18 18 17 16 16 15 16 16 17 17 16 16 16 16 16 15 15 15 15 15 15 14 14 14 14 14 15 12 13 13 13 13
23 22 21 20 20 19 19 18 18 17 17 18 17 18 17 16 15 15 16 16 16 16 16 16 16 15 15 16 16 16 15 15 15 14 14 13 13 13 14 11 12 12 12
21 20 20 20 19 18 18 17 18 18 18 17 18 17 16 16 15 15 15 15 15 15 15 16 15 15 16 15 16 16 16 15 15 14 14 14 13 12 12 12 12 12 12
19 20 20 19 17 18 18 18 19 19 18 18 18 16 15 15 14 14 14 15 15 15 15 14 14 15 14 15 14 15 15 15 14 14 14 14 14 13 13 12 12 13 12
18 18 18 18 17 17 17 17 16 16 17 16 16 15 15 14 14 14 13 14 14 14 14 14 13 14 14 14 15 15 17 17 16 14 14 14 13 13 12 12 11 11 11
17 17 17 17 16 15 15 16 17 17 17 17 15 15 14 13 13 13 13 12 12 13 13 13 13 13 14 14 14 14 16 16 17 17 14 13 13 12 12 11 10 10 10
16 16 16 16 16 15 14 15 15 15 15 14 14 14 13 12 12 12 11 11 11 12 12 12 12 12 12 13 13 14 13 13 15 15 14 13 12 11 11 11 10 10 10
15 15 15 16 15 14 14 13 14 14 14 14 13 12 12 13 12 12 10 10 10 10 10 9 9 9 10 9 10 10 9 10 11 12 14 13 12 11 10 10 9 9 9
16 16 15 15 15 14 13 13 12 12 11 12 12 12 12 12 12 11 9 9 8 8 8 7 5 4 4 4 3 2 3 3 5 5 7 10 10 9 10 9 9 8 9

GFSSE_925_temp_024.txt.gz
Temp
21 20 21 20 20 20 20 20 20 20 20 20 20 19 19 19 19 19 19 19 19 19 19 19 18 18 19 19 19 19 19 20 20 20 20 21 20 20 20 20 20 19 19
21 20 20 20 20 20 20 20 20 20 20 20 20 20 19 19 19 19 19 19 18 18 18 18 19 19 19 19 19 19 19 19 20 20 20 20 19 20 20 20 19 19 19
20 20 20 20 20 20 20 20 20 20 20 19 19 19 19 19 19 18 18 18 18 18 18 17 18 18 18 18 19 18 18 19 19 20 20 21 20 20 19 19 19 19 19
22 20 20 20 20 19 19 19 19 19 19 19 19 19 19 19 19 18 18 18 18 18 18 17 17 18 18 17 17 18 18 18 19 19 20 20 19 18 19 19 19 19 19
21 20 20 20 20 19 20 20 19 19 19 19 19 18 18 18 18 18 18 18 17 17 17 17 17 18 17 17 17 18 18 18 18 19 20 20 20 16 18 19 18 18 18
20 21 20 21 20 21 20 20 19 19 19 19 19 18 18 18 17 17 17 17 17 17 17 17 17 17 17 17 17 17 17 18 18 19 19 20 20 18 18 18 18 18 18
21 21 21 21 21 20 20 19 19 19 19 19 19 18 18 18 18 18 17 17 17 17 17 17 17 17 17 17 17 17 17 18 18 19 19 20 19 20 17 18 18 18 18
22 22 21 21 20 20 20 19 18 19 18 19 18 18 18 18 18 18 17 17 17 17 17 17 17 17 17 17 17 17 17 18 18 18 19 19 18 17 18 18 17 17 17
23 22 21 21 21 20 20 19 19 19 19 18 18 18 18 18 18 18 17 17 17 17 17 17 17 17 17 17 17 17 17 18 18 19 19 18 18 19 18 17 17 17 17
24 24 23 22 22 21 21 20 19 19 19 19 19 19 18 18 18 17 17 17 17 17 17 17 17 17 17 17 17 18 18 19 18 19 19 19 18 18 17 17 16 17 17
25 24 24 23 22 21 21 21 20 20 19 19 19 19 19 19 18 17 18 18 18 17 17 17 17 17 17 17 17 17 18 18 18 19 18 18 18 17 17 16 16 16 16
25 24 23 23 22 22 23 21 21 21 20 20 20 19 19 19 19 19 18 18 18 18 18 17 17 17 17 17 17 17 18 18 18 18 18 19 18 17 17 16 16 16 16
25 25 23 23 22 22 22 23 22 22 21 20 20 19 19 19 19 19 19 18 19 18 18 18 18 18 17 17 16 17 17 17 17 18 18 18 18 18 17 16 15 15 15
26 25 23 22 22 22 22 22 22 22 21 21 20 20 19 19 19 19 19 18 19 19 19 18 18 18 18 17 17 16 16 16 16 17 17 17 18 17 16 15 15 15 15
26 26 24 23 22 21 21 22 21 21 21 21 20 20 19 19 18 18 18 18 18 19 19 19 18 18 18 18 18 17 16 16 16 16 16 17 17 17 16 15 14 14 14
27 26 25 23 22 22 22 21 21 21 21 21 20 19 19 18 18 18 18 18 18 18 18 18 18 17 17 17 17 17 17 16 16 16 17 17 16 16 16 16 14 13 13
27 27 25 21 23 22 22 21 21 21 21 21 20 20 19 18 18 18 18 18 18 18 18 18 18 18 18 18 18 17 17 17 16 16 16 16 16 16 16 15 15 14 14
27 26 23 25 23 22 22 21 21 21 20 20 20 20 19 18 18 17 17 17 17 17 17 17 17 17 17 17 17 17 18 17 17 16 16 16 16 15 15 15 15 15 14
26 25 25 25 23 22 22 21 21 20 20 20 20 20 19 18 18 17 16 16 16 16 16 16 17 17 17 17 17 17 17 17 17 17 17 16 16 15 15 15 15 15 14
23 24 24 23 22 21 21 21 21 20 20 20 20 19 18 17 17 16 16 16 16 16 16 16 16 16 15 15 15 16 16 16 16 17 17 17 16 15 15 14 14 14 14
23 22 22 20 20 20 21 20 20 20 19 20 19 18 17 17 16 15 15 15 15 15 15 15 14 14 14 15 15 15 15 16 16 16 17 17 16 16 15 15 14 14 14
21 21 21 20 19 19 19 19 19 19 19 19 19 18 17 17 16 15 15 14 13 13 13 13 13 14 14 14 14 14 13 14 15 16 16 16 16 16 16 15 14 13 13
20 20 20 19 18 17 18 18 18 18 18 18 18 17 17 15 14 14 14 14 13 13 12 12 12 12 12 12 13 13 11 11 12 13 14 14 14 14 15 15 14 14 14
19 19 19 19 18 17 16 16 16 16 16 15 15 15 15 14 14 13 13 13 12 12 11 11 11 9 8 7 8 9 7 7 8 9 12 12 12 11 11 12 10 11 12
18 18 18 19 18 17 16 16 15 15 14 14 14 14 13 13 12 12 12 11 11 10 10 9 8 7 6 6 5 5 5 6 6 5 6 6 8 8 7 6 8 9 9
19 18 18 18 18 18 17 16 15 14 14 14 13 13 12 11 11 10 10 10 10 9 8 7 7 6 5 5 4 4 3 2 2 1 2 2 2 4 5 6 6 6 6

GFSSE_925_temp_027.txt.gz
Temp
19 20 21 21 21 20 20 20 20 20 20 20 19 19 19 19 19 19 19 19 18 18 19 18 18 19 19 19 19 19 20 20 20 21 20 19 19 19 19 19 19 19 19
20 20 21 21 20 20 20 20 20 20 19 19 19 19 19 19 19 19 19 19 19 19 19 19 19 19 18 18 18 18 18 19 19 20 20 20 19 19 19 19 19 18 19
19 20 20 20 20 19 19 19 20 19 19 19 19 19 19 19 19 18 18 18 18 18 18 18 18 18 18 18 18 18 18 18 18 19 19 19 19 18 18 18 19 18 18
20 20 20 20 20 20 20 19 19 19 19 19 19 19 18 18 18 18 18 18 18 18 18 18 18 18 18 17 17 18 18 18 18 19 19 18 18 18 18 18 19 18 18
20 20 20 20 20 20 19 19 19 19 19 18 18 17 18 18 18 18 18 17 18 18 18 18 18 18 18 18 18 18 18 18 18 19 19 18 18 18 19 19 17 18 18
20 20 20 21 21 20 20 20 19 19 19 18 18 18 18 18 18 18 18 17 17 17 17 18 18 18 18 17 17 18 18 18 18 19 18 18 19 19 19 18 17 18 18
20 21 21 20 20 20 20 20 20 19 19 19 19 19 18 18 18 18 17 17 17 17 17 17 17 17 17 17 18 18 18 18 18 18 18 18 19 19 19 18 17 18 17
21 20 20 20 21 21 20 20 19 19 19 19 19 19 19 19 18 18 17 17 17 17 17 18 18 18 18 18 18 18 18 18 18 18 18 18 19 19 19 19 18 17 17
22 22 21 21 21 21 20 19 19 19 19 19 19 19 18 18 18 18 18 18 18 18 18 18 18 18 18 18 18 18 18 19 18 18 17 17 18 18 18 18 18 17 17
23 23 22 21 21 21 21 20 20 20 19 19 19 19 18 18 18 19 18 18 18 18 18 17 17 17 17 17 17 17 18 18 18 18 18 18 18 18 18 18 18 17 17
22 22 22 21 21 21 21 21 20 20 20 19 19 19 19 18 18 18 18 18 18 18 17 17 17 17 17 17 17 17 17 17 17 17 17 18 18 18 18 18 17 17 17
23 22 22 21 22 21 21 21 20 20 20 19 19 19 19 19 19 18 18 18 18 18 18 18 18 18 17 17 17 17 17 17 17 17 17 18 17 17 18 18 17 16 16
24 23 23 22 22 21 21 21 21 20 20 19 19 19 19 19 19 19 18 18 18 18 18 18 18 18 18 17 17 17 17 17 17 17 17 17 17 17 17 17 17 16 15
24 23 23 23 22 22 22 21 20 20 20 19 19 19 19 19 19 19 18 18 18 18 18 18 18 18 18 18 17 17 17 16 16 16 16 16 16 17 17 17 17 16 15
24 23 23 23 23 22 22 21 21 21 21 20 20 20 19 19 18 18 18 18 18 18 18 18 18 18 18 17 17 17 17 17 17 17 16 16 16 16 17 17 17 16 14
25 23 23 22 22 21 22 21 21 21 21 20 20 20 19 18 18 18 18 18 18 18 18 18 17 17 17 17 17 17 17 17 17 17 17 16 16 16 16 16 16 16 14
25 22 22 22 22 21 21 21 21 20 21 20 20 20 19 19 18 18 17 17 17 17 17 17 17 17 17 17 17 17 17 17 17 17 17 17 17 16 16 16 16 16 16
24 23 22 22 19 16 21 21 21 20 20 20 20 20 19 18 18 17 17 17 17 17 16 16 16 16 16 16 16 16 16 17 17 17 17 17 16 16 16 16 16 16 16
23 23 22 19 18 18 20 20 20 20 20 20 20 19 18 18 17 17 16 16 16 15 15 15 15 15 14 15 15 15 15 15 16 16 16 16 16 16 16 16 15 15 15
21 21 21 20 19 20 20 20 20 20 19 19 19 18 18 17 17 17 16 16 15 15 14 14 13 14 13 13 14 14 14 15 15 15 16 16 16 16 15 15 15 15 15
21 20 20 20 20 20 19 19 19 19 19 19 18 18 17 16 15 15 14 14 14 14 13 13 13 12 12 12 12 12 13 13 14 14 15 15 15 15 16 16 15 15 15
20 19 19 19 19 19 18 18 18 18 18 18 16 15 15 14 14 14 13 13 13 13 12 12 11 11 10 10 9 10 10 12 12 12 13 13 12 12 13 12 12 13 14
19 19 18 18 18 18 18 18 17 17 16 16 15 14 14 13 13 12 12 11 11 11 11 11 10 10 7 7 7 7 6 7 7 10 11 11 11 10 10 10 10 10 10
18 18 18 18 18 18 17 16 16 15 14 14 14 13 13 12 11 11 11 11 10 10 10 9 8 9 8 6 6 6 4 5 5 6 9 9 8 7 7 7 7 7 7
18 18 18 18 17 17 16 16 15 15 14 14 13 12 11 11 11 10 10 9 9 9 9 8 8 7 7 7 6 4 4 3 4 3 4 4 4 5 6 6 6 6 7
18 18 18 18 17 16 16 15 15 14 13 12 11 11 10 10 9 9 8 8 8 8 8 7 6 6 5 5 5 4 3 2 2 1 2 1 2 3 4 5 5 6 5

GFSSE_925_temp_033.txt.gz
Temp
18 19 20 20 20 21 21 21 21 20 20 20 20 19 19 19 19 19 19 19 18 18 18 19 19 19 19 19 18 18 18 18 18 19 19 19 18 19 19 19 18 19 19
19 19 19 20 20 20 20 20 20 20 19 19 19 19 18 18 18 18 18 18 18 17 17 16 17 18 18 18 18 18 18 18 18 18 18 19 19 19 19 19 19 19 18
18 18 19 20 20 20 20 20 20 19 19 19 18 18 18 18 18 18 18 18 17 16 16 16 16 17 18 18 18 18 17 17 18 18 18 18 19 18 19 19 20 19 18
18 19 19 19 19 19 19 19 19 19 18 18 18 18 18 18 18 18 18 18 18 18 17 18 18 18 18 18 18 17 17 17 17 18 18 18 19 19 18 19 19 19 19
18 18 19 19 19 19 19 19 19 19 18 18 18 18 18 18 18 18 18 18 18 18 18 18 18 18 17 17 17 17 17 17 17 17 17 18 18 18 19 18 18 18 18
18 18 19 19 19 19 19 19 19 18 18 18 18 18 18 19 19 19 19 19 19 19 18 19 18 18 18 17 17 16 16 17 17 17 18 18 18 18 18 19 19 18 18
18 19 19 20 20 19 19 19 19 19 19 18 18 19 19 19 19 18 18 19 19 19 19 19 18 18 18 18 17 17 17 17 17 17 17 18 17 17 18 18 18 18 18
20 20 20 20 20 19 19 19 19 19 19 19 19 19 19 19 19 18 18 18 18 18 18 18 18 17 18 18 17 17 17 17 17 17 17 17 17 17 17 17 17 18 18
20 20 20 20 20 20 19 19 19 19 19 19 19 19 19 18 18 18 18 18 18 17 18 17 17 17 17 17 17 17 17 17 17 17 17 17 17 17 16 17 17 17 17
20 20 21 20 20 19 19 19 20 20 19 19 19 18 18 18 18 18 18 18 18 18 18 18 18 17 17 17 17 17 17 17 17 17 17 17 17 17 16 16 17 17 17
19 20 20 20 20 20 20 20 19 19 19 18 18 18 18 18 18 18 18 17 17 18 18 17 17 17 17 17 17 17 17 17 17 17 17 17 17 17 16 15 16 16 16
19 19 20 20 20 20 20 19 19 19 19 18 18 18 18 18 18 18 17 17 17 17 17 17 17 17 17 17 17 17 17 17 17 17 16 16 16 17 16 15 16 16 16
20 19 20 20 20 20 20 20 19 19 19 19 18 18 18 18 18 17 17 17 17 17 17 17 17 17 17 16 17 16 16 17 17 17 17 17 17 16 16 15 15 16 16
20 20 20 20 20 20 20 20 20 19 19 19 19 18 18 18 18 18 17 17 17 17 17 17 16 16 16 16 16 16 16 16 16 16 16 17 17 17 17 16 15 14 14
20 20 21 20 20 20 20 20 20 20 19 19 19 19 18 18 18 18 17 17 17 17 17 16 16 16 16 16 16 16 15 15 15 16 16 16 16 16 16 17 17 15 15
20 21 21 20 20 21 20 20 20 20 20 19 19 18 18 18 18 18 18 17 17 17 16 16 15 15 15 15 15 15 14 14 14 14 15 15 15 15 15 16 16 17 15
20 21 21 20 19 20 20 19 19 20 20 19 19 18 18 18 18 17 17 16 16 15 15 15 15 14 14 14 13 14 14 14 14 14 14 14 14 14 15 15 15 16 16
20 21 20 19 19 18 19 19 18 18 18 18 18 17 17 16 16 16 15 15 14 14 14 14 14 13 13 13 13 13 12 12 12 13 13 13 13 13 14 14 14 15 15
20 20 17 17 18 17 17 17 17 18 18 17 17 16 15 15 15 14 14 13 13 13 13 12 12 12 11 12 12 11 11 11 11 11 11 11 11 11 12 13 14 14 14
17 18 16 16 17 16 17 17 17 16 15 15 15 15 15 14 14 14 13 13 13 12 12 11 11 11 10 10 10 10 10 10 9 10 9 9 9 10 9 10 10 11 12
16 17 16 16 17 17 17 17 16 15 14 15 15 14 14 14 14 14 13 12 12 11 11 10 10 10 9 9 8 8 9 9 9 9 8 7 7 8 8 8 8 9 9
17 17 17 18 17 17 17 16 16 15 15 15 14 14 14 13 12 12 11 11 11 10 10 9 9 8 8 8 7 6 5 7 7 7 7 7 7 6 6 6 7 8 8
18 18 18 18 18 17 17 17 16 15 14 14 13 12 11 11 10 10 10 10 10 9 8 8 7 7 6 7 6 5 4 3 4 7 6 6 6 5 5 5 5 6 6
16 17 17 17 17 17 17 17 17 16 15 12 11 11 10 10 10 10 9 9 8 8 7 7 6 6 6 5 5 5 4 4 2 2 4 4 4 3 4 4 4 5 5
16 16 16 16 16 16 15 15 15 14 13 12 11 11 10 10 9 8 8 7 7 7 6 6 5 5 4 4 4 3 3 3 2 2 2 2 2 3 3 3 4 4 4
16 16 16 16 16 15 15 14 14 13 12 11 11 10 10 9 9 8 8 7 7 6 6 5 5 4 4 3 3 3 2 2 2 2 3 3 2 2 3 3 4 4 4

GFSSE_925_temp_036.txt.gz
Temp
18 19 19 20 21 20 20 20 20 20 20 20 19 19 19 19 19 19 19 18 17 17 17 17 18 18 17 17 17 17 17 18 18 18 18 19 19 19 19 19 19 19 19
19 19 19 20 20 20 20 20 20 19 19 19 19 19 19 19 19 18 18 18 17 17 16 17 18 18 18 17 17 17 18 18 18 18 18 19 18 19 19 19 19 19 19
19 18 19 19 20 20 20 19 19 19 19 19 19 18 18 18 18 18 18 17 17 16 17 18 18 18 18 17 17 17 17 17 18 18 18 18 18 18 18 19 19 18 18
18 18 18 19 19 19 19 19 19 19 19 18 18 18 18 18 18 18 18 18 17 17 16 18 18 18 17 17 17 17 17 17 17 18 18 18 18 17 18 18 18 18 18
18 18 18 19 19 19 19 19 19 19 18 18 18 18 18 18 18 18 18 18 18 18 17 18 18 18 18 17 18 18 17 17 17 17 17 18 18 18 17 17 18 18 18
18 18 18 19 19 20 19 19 19 19 19 18 18 19 19 18 18 18 18 18 18 18 18 18 18 18 18 17 17 17 17 17 17 17 17 18 17 17 18 17 17 17 17
17 18 18 19 19 19 19 19 18 19 19 19 19 19 18 18 19 19 18 18 18 18 18 18 17 17 17 17 17 17 17 17 17 17 17 17 17 17 17 17 17 17 17
18 18 19 19 19 19 19 19 19 19 19 19 19 19 19 19 18 18 18 18 18 18 17 17 17 17 17 17 17 17 17 17 17 17 17 17 17 17 17 17 17 17 17
19 19 19 19 19 19 19 19 19 19 19 18 19 19 18 18 18 18 18 17 17 17 17 17 17 17 17 17 17 17 17 17 17 17 17 17 17 17 16 16 16 17 17
19 19 20 20 19 19 19 19 19 19 18 19 18 18 18 18 17 17 17 17 17 17 17 17 17 17 17 17 17 17 16 16 17 16 17 17 17 17 17 16 16 17 17
19 20 20 19 19 19 19 19 18 19 19 18 18 18 18 18 17 17 17 17 17 17 17 17 17 17 17 17 17 17 17 17 16 16 16 16 16 16 16 16 16 16 16
19 19 19 19 20 20 19 19 19 19 19 18 18 18 18 17 17 17 17 17 17 17 17 17 17 17 17 16 16 16 16 16 16 16 16 16 16 16 16 16 16 16 16
20 19 19 19 20 20 20 19 19 19 18 18 18 18 18 18 18 17 17 17 17 17 17 17 17 16 16 16 16 16 15 16 16 16 16 16 16 16 15 15 15 15 16
19 20 20 19 20 20 19 19 19 19 19 18 18 18 18 18 18 18 17 17 17 17 16 16 16 16 15 15 15 15 15 15 15 15 15 15 16 16 16 15 15 15 15
19 20 20 19 19 19 19 19 18 19 19 18 18 18 18 18 18 18 17 16 16 15 15 15 15 15 15 15 15 14 14 14 14 14 14 14 14 15 15 15 15 14 15
20 20 20 19 18 18 18 18 18 18 18 18 18 17 17 17 16 16 16 15 14 14 14 14 14 14 14 14 14 14 13 13 13 13 13 13 14 14 14 15 15 15 14
21 20 19 18 17 17 16 17 17 17 18 17 17 16 16 16 15 15 15 15 14 14 14 14 13 13 13 13 13 13 12 12 12 12 12 11 12 13 13 13 14 14 14
20 18 17 17 16 16 16 16 16 16 17 16 16 15 15 15 15 15 14 14 14 14 13 13 13 12 12 11 11 11 11 11 11 10 9 9 10 10 11 11 12 13 13
19 18 16 16 15 15 14 15 15 16 16 15 15 15 15 15 15 15 14 14 13 13 12 12 11 11 10 10 10 10 10 10 9 9 9 9 8 8 9 9 10 10 10
15 16 15 15 14 14 12 14 15 15 15 15 15 15 15 15 14 14 13 12 12 12 11 11 10 10 9 8 8 8 9 9 9 8 8 8 7 7 7 8 8 9 9
15 16 16 16 13 13 14 15 15 15 15 15 15 15 14 13 13 12 12 11 11 11 10 9 8 8 8 7 7 7 8 8 8 7 7 7 7 6 6 6 7 7 8
15 15 15 16 15 16 16 16 17 16 15 15 14 13 12 12 11 11 11 11 10 10 9 8 7 7 7 6 6 5 4 6 6 7 7 7 6 6 5 5 5 6 6
16 17 17 17 18 18 18 18 17 16 14 13 12 12 11 11 11 11 10 10 9 9 8 7 7 6 6 6 5 5 3 2 2 5 6 5 5 4 4 4 4 4 5
17 17 18 18 18 17 17 16 16 15 14 13 11 11 10 11 10 10 10 9 8 8 7 7 6 6 5 5 5 5 4 3 1 1 4 4 4 3 3 3 3 4 4
16 16 17 17 16 16 16 15 15 15 13 11 11 11 11 10 10 10 9 8 7 6 6 5 5 5 4 4 3 3 3 3 2 1 2 3 3 3 2 2 2 3 4
15 15 15 15 15 15 15 14 14 13 12 11 11 11 11 11 10 9 8 8 7 6 5 5 4 4 3 3 3 2 2 1 2 2 2 1 1 1 1 2 2 2 3

GFSSE_925_temp_042.txt.gz
Temp
22 20 19 20 20 20 20 20 20 20 20 20 19 19 19 19 18 18 18 18 17 17 16 16 16 17 18 18 18 18 18 18 18 18 19 18 17 18 18 19 19 21 18
21 19 19 19 20 19 20 20 20 19 20 19 19 19 19 19 19 18 18 17 16 16 16 16 17 18 18 18 18 18 18 18 18 18 19 19 19 18 18 18 19 18 18
20 19 18 19 19 19 19 19 19 19 19 19 18 18 18 18 18 18 17 17 17 16 16 16 17 17 18 18 18 18 18 18 18 18 19 21 20 18 18 18 18 18 18
19 20 20 19 19 19 19 19 18 18 18 18 18 18 18 18 18 18 18 18 18 17 17 17 18 18 18 18 17 18 18 18 18 19 21 20 20 18 17 18 17 17 18
21 21 19 19 19 19 18 18 18 18 19 18 18 18 18 18 18 18 18 17 17 16 16 17 17 17 17 17 17 17 17 18 19 20 20 19 20 17 17 18 17 17 17
21 21 18 19 19 18 18 19 18 18 18 18 18 18 18 18 17 17 17 17 17 17 17 17 17 17 17 17 17 17 17 18 19 20 20 19 19 16 16 17 17 18 17
21 20 18 18 18 18 18 18 18 18 18 18 18 18 18 17 17 17 17 17 17 17 17 17 17 17 17 17 17 17 17 17 19 20 20 19 17 17 16 16 17 17 17
18 19 17 18 18 18 18 18 18 18 17 18 18 18 17 17 17 17 17 17 17 17 17 17 17 17 17 17 17 17 17 17 19 19 19 20 17 17 16 16 16 17 17
18 18 19 18 17 17 18 18 18 17 18 18 18 17 17 17 17 17 17 17 17 16 17 17 17 17 17 17 17 17 17 17 19 19 19 19 16 16 15 15 15 16 16
18 19 19 19 18 18 17 17 18 18 18 18 18 17 17 17 17 17 17 17 17 17 17 17 17 17 17 17 17 17 17 18 19 19 19 17 17 17 16 15 15 16 16
18 18 18 19 18 19 18 17 17 17 18 18 17 17 17 18 17 17 17 17 17 17 17 17 17 17 17 17 17 17 17 18 18 18 19 17 16 16 16 16 16 15 15
20 19 18 18 18 18 18 17 17 17 18 18 17 17 18 17 18 18 17 17 17 17 17 17 17 17 17 18 18 17 17 16 18 18 18 16 16 16 16 15 15 15 15
20 19 19 17 17 17 17 18 18 18 18 17 17 17 17 17 17 18 18 18 17 17 17 17 17 17 15 16 16 16 16 16 17 17 17 15 15 15 15 15 14 14 14
20 20 18 17 16 16 18 18 18 18 17 18 17 16 17 17 17 17 17 17 16 17 16 16 16 15 15 15 15 15 15 15 16 16 16 14 14 14 14 14 14 14 14
21 20 18 17 17 17 17 17 17 17 17 17 17 16 16 16 16 16 16 16 16 16 16 16 16 15 15 15 15 14 15 15 14 15 15 14 12 13 13 13 13 13 12
21 20 18 17 17 17 16 16 15 15 15 16 15 16 15 15 15 16 15 15 15 15 15 15 14 14 15 15 15 14 14 14 14 13 14 14 12 11 11 11 11 11 12
21 19 17 17 16 16 15 15 14 14 15 15 14 14 14 14 14 15 15 14 14 13 14 14 13 14 14 14 14 14 14 14 13 12 12 12 13 11 10 10 10 10 10
21 18 16 15 14 14 15 15 15 14 14 15 14 14 13 13 13 13 13 13 12 13 13 13 13 13 14 13 13 13 13 13 13 12 12 11 11 11 11 10 9 9 9
20 18 15 15 14 15 15 16 14 14 14 13 13 13 13 14 14 13 12 12 12 13 12 12 12 12 12 13 12 13 13 12 13 12 11 10 10 9 9 9 8 8 8
19 17 15 15 15 14 14 14 14 13 14 14 14 14 13 12 12 12 12 12 12 12 12 11 11 11 11 11 11 11 12 11 12 11 11 10 10 9 9 8 8 9 8
15 15 15 14 15 15 14 13 13 13 13 13 13 12 12 12 12 12 12 12 11 11 10 10 10 11 11 10 10 12 12 12 11 11 10 10 9 8 8 8 8 8 8
16 16 15 16 15 15 16 16 16 16 15 14 13 12 12 11 11 11 11 11 11 11 10 10 9 10 10 10 9 10 12 12 12 10 9 9 8 8 8 8 7 6 7
17 17 18 17 17 17 17 16 15 14 14 14 13 12 11 11 11 11 11 10 10 10 10 9 9 9 9 9 9 9 10 11 10 10 9 8 8 7 7 7 7 6 6
18 18 19 18 17 16 15 16 16 17 17 15 14 13 12 11 11 11 10 10 9 9 9 9 9 8 8 9 9 9 8 7 6 6 7 7 7 7 7 6 6 6 6
17 17 17 17 17 15 15 16 16 16 15 13 13 12 12 11 10 10 10 9 9 9 9 8 8 7 7 7 7 7 6 6 6 6 6 7 7 7 6 6 5 5 6
16 16 16 16 15 15 15 14 14 14 14 14 13 13 13 12 11 10 9 9 9 8 8 8 7 6 6 6 5 5 5 4 5 5 5 5 5 6 6 5 5 5 5

GFSSE_925_temp_045.txt.gz
Temp
24 20 20 19 19 19 19 20 20 20 20 20 19 19 19 18 18 18 18 17 17 16 16 16 17 18 18 19 19 18 18 19 19 19 19 18 19 19 19 19 19 19 18
23 20 20 19 19 19 19 20 20 20 19 19 19 18 18 18 18 17 17 17 16 16 16 17 18 18 18 18 18 19 19 19 19 20 19 18 19 19 18 18 18 18 18
22 20 19 19 19 20 20 20 20 19 19 19 18 18 18 18 18 18 18 17 17 16 16 16 17 17 18 18 18 18 19 19 20 20 21 20 19 19 18 18 18 18 18
21 20 19 19 19 19 19 19 19 19 19 18 18 18 18 18 18 18 18 18 17 16 16 16 17 17 17 18 18 18 19 19 20 21 21 22 19 18 18 17 17 18 18
21 21 20 19 19 19 19 19 19 19 18 18 18 18 18 18 18 18 18 17 16 16 16 17 17 17 17 17 17 18 18 19 21 22 22 20 20 17 17 18 17 17 18
22 20 19 19 19 19 19 18 18 18 18 18 18 18 18 18 18 18 17 17 17 17 17 17 17 17 17 17 17 17 18 20 21 22 21 19 18 16 16 17 17 17 17
20 19 18 18 19 18 18 18 18 18 18 18 17 17 17 18 18 17 17 17 17 17 17 17 17 17 17 17 18 18 18 19 20 21 22 19 16 16 16 16 17 17 17
20 19 18 18 18 18 18 18 18 17 18 17 17 17 17 17 17 17 17 17 17 17 17 17 17 17 17 17 17 18 18 19 21 21 21 19 17 16 16 15 16 16 16
19 19 19 18 17 17 17 17 17 17 17 17 17 17 17 17 17 17 17 17 17 17 17 17 17 17 17 17 17 18 18 19 20 21 21 18 17 17 15 15 15 16 16
19 20 21 19 19 17 17 17 17 17 17 17 17 17 17 17 17 17 17 17 17 17 17 17 17 17 17 18 18 18 19 19 20 20 20 18 17 17 16 16 16 16 16
21 21 21 21 20 19 18 17 17 17 17 17 17 17 18 18 18 17 17 17 17 17 17 17 17 17 18 18 18 18 19 19 19 19 19 18 17 17 15 14 15 15 15
22 21 21 20 20 20 20 18 18 18 18 19 18 18 19 19 19 18 18 18 17 17 18 18 17 18 18 19 19 18 19 18 19 19 18 17 17 16 16 14 13 13 14
22 21 20 19 19 20 20 20 20 19 19 19 18 19 18 19 19 19 19 18 19 18 19 18 18 18 17 17 17 17 17 17 18 18 18 17 16 15 15 13 12 12 12
22 21 19 18 18 19 19 20 20 20 20 20 19 18 18 18 18 18 19 19 18 19 18 18 18 17 17 16 16 16 16 16 17 16 17 16 15 14 14 11 11 11 11
23 21 20 19 18 19 20 19 20 19 19 18 17 16 17 17 17 17 17 18 18 18 18 17 17 17 16 17 16 16 16 16 16 16 16 15 14 13 13 12 10 10 10
23 21 20 19 19 19 18 18 17 17 17 17 16 15 15 16 16 17 18 17 17 16 16 16 15 15 16 16 16 16 16 15 15 15 15 15 13 13 12 11 11 10 9
23 21 20 19 19 18 17 17 16 15 15 15 14 14 14 15 16 16 16 16 15 14 14 14 14 15 15 15 16 16 15 15 15 15 14 14 14 13 12 11 10 10 9
23 21 20 18 18 17 15 14 13 12 13 14 13 13 13 14 14 15 14 13 13 14 14 14 14 14 14 14 14 15 14 14 15 14 14 14 13 12 12 10 10 9 8
22 20 18 17 16 13 15 16 17 15 14 15 12 12 13 14 13 13 13 13 14 14 14 13 13 13 13 13 14 14 13 13 14 13 14 13 12 12 11 10 10 9 9
22 20 18 17 14 14 15 15 15 15 14 13 12 13 13 13 13 14 14 13 13 13 13 12 12 12 12 13 13 12 12 13 13 13 13 13 12 11 10 10 10 10 9
22 19 17 15 14 15 16 15 15 15 15 15 15 14 14 14 13 13 14 13 13 13 12 12 11 11 12 12 12 12 12 12 13 13 13 12 11 11 10 9 9 9 9
19 17 16 16 16 17 18 17 17 17 17 16 15 14 14 13 13 13 12 13 12 12 12 12 11 11 11 11 11 11 12 12 12 12 11 11 11 10 10 9 9 8 8
18 17 17 18 18 19 19 18 18 17 16 16 15 15 14 13 13 13 12 12 12 12 11 11 11 10 10 10 10 10 11 10 10 10 10 9 9 9 9 9 8 8 8
19 19 20 20 19 19 18 18 18 18 18 17 17 16 14 13 13 12 12 11 11 11 11 11 11 10 9 10 10 10 9 9 9 8 8 8 8 8 8 8 7 7 7
21 20 20 20 19 18 18 18 18 18 17 16 16 15 14 13 13 12 12 11 11 10 10 10 9 9 9 8 8 8 7 7 7 7 7 7 7 7 7 7 7 7 7
20 20 20 19 19 18 17 17 17 17 16 16 15 15 14 14 13 13 12 11 10 10 10 9 9 8 8 7 7 6 6 6 6 6 6 5 5 6 7 7 7 7 6

GFSSE_925_temp_048.txt.gz
Temp
20 21 20 19 19 19 19 19 19 19 19 19 19 19 18 18 18 18 17 17 17 16 16 16 18 18 19 19 19 19 19 19 19 19 18 18 18 19 19 19 18 18 18
20 20 20 19 19 19 19 19 19 19 19 19 19 18 18 18 17 17 17 17 16 16 16 16 17 18 19 19 19 19 20 20 20 19 18 18 18 18 19 18 18 18 17
20 19 20 19 18 19 19 19 19 19 19 18 18 18 17 17 17 17 17 17 17 16 16 17 18 18 18 18 18 19 20 20 20 20 18 17 17 17 18 17 18 18 17
20 19 19 19 19 19 19 19 19 19 18 18 18 17 17 17 17 17 17 17 17 16 17 18 18 18 18 18 18 19 20 20 21 21 19 18 17 17 18 17 17 18 17
21 19 19 19 19 19 19 19 19 18 18 18 17 17 17 17 17 17 17 17 17 16 16 17 17 17 18 18 18 19 20 20 21 21 20 19 17 16 16 17 17 17 17
20 19 19 19 19 19 19 18 18 18 18 18 18 18 18 17 17 17 17 17 17 17 17 17 17 17 17 18 19 19 20 21 21 20 20 20 18 16 16 15 16 16 16
20 19 18 18 18 18 18 18 18 18 18 18 18 18 18 18 18 17 17 17 17 17 17 17 17 17 18 18 18 19 19 20 21 20 20 19 18 16 16 15 16 16 16
17 18 18 18 18 18 18 18 17 17 17 18 18 18 18 18 18 17 17 17 17 17 17 17 17 18 18 18 18 19 19 20 20 21 18 18 18 17 15 15 16 16 16
18 18 18 17 17 17 17 17 17 17 18 18 18 18 18 17 17 17 17 17 17 17 17 17 17 18 18 18 18 19 19 19 19 19 18 18 18 17 15 15 15 15 15
17 19 18 18 17 17 17 17 17 18 18 18 18 18 18 17 18 17 17 17 17 17 17 17 18 18 18 18 18 19 19 19 19 19 18 18 17 17 16 14 14 14 14
17 19 19 19 18 18 17 17 17 18 18 18 18 18 18 18 18 17 18 18 18 18 18 18 18 18 18 18 18 18 18 18 18 19 18 18 17 17 16 15 13 13 13
20 20 20 19 19 18 17 18 18 18 18 18 18 18 18 18 18 18 18 18 18 18 18 18 18 18 17 17 17 17 17 17 17 18 17 17 17 16 16 15 12 12 12
21 21 20 20 20 20 19 18 19 19 18 18 18 18 19 19 19 18 18 18 18 18 18 18 18 17 17 17 16 16 16 16 16 16 16 16 15 15 15 14 12 11 11
21 20 19 19 19 20 20 20 20 19 19 19 19 18 18 18 18 18 18 18 18 18 18 18 17 17 17 16 17 16 16 16 16 16 16 15 15 14 14 13 11 10 10
21 19 18 19 19 20 20 20 19 19 18 18 17 17 17 17 17 18 18 18 18 17 16 16 16 15 15 16 16 16 16 16 15 15 15 15 14 14 13 12 12 10 10
21 20 19 19 19 19 19 19 17 16 16 16 16 16 15 16 16 16 16 16 16 16 15 14 14 14 15 15 15 15 15 15 15 15 15 14 14 13 12 12 11 10 9
21 20 19 19 18 18 17 17 17 17 17 17 16 15 15 15 15 15 15 15 15 14 14 14 14 14 14 14 14 14 14 14 14 14 14 14 14 13 12 11 10 9 9
21 20 20 19 18 17 17 17 17 17 19 16 15 15 15 15 15 14 14 14 14 14 14 13 13 13 13 13 13 13 14 13 13 13 14 14 13 13 12 11 10 9 10
21 21 19 18 16 16 16 15 15 15 15 15 15 15 14 14 14 14 14 13 14 14 13 13 12 12 12 12 12 13 12 12 12 12 13 13 13 12 11 11 10 9 9
21 19 19 17 16 15 15 15 15 15 15 16 15 15 14 14 14 14 14 13 13 13 13 12 12 11 11 11 11 11 11 12 12 12 12 13 12 11 11 10 10 9 9
21 19 18 15 16 14 14 15 15 15 15 15 14 14 14 14 13 14 14 13 13 13 12 12 11 11 11 10 10 10 11 11 11 12 11 10 10 10 10 10 9 9 8
21 18 16 16 14 15 17 17 16 15 15 15 15 14 14 14 13 13 13 13 12 12 12 11 11 11 10 10 10 10 8 10 11 10 10 9 9 9 8 9 9 8 8
19 17 17 17 16 17 19 17 17 17 16 16 15 14 14 13 13 13 12 12 11 11 11 11 11 10 9 9 10 9 7 6 7 8 8 8 8 8 8 8 8 7 7
18 18 17 17 18 19 19 18 18 17 17 17 16 15 14 13 13 13 12 12 11 11 11 10 10 10 9 9 9 8 8 8 5 5 7 7 7 7 7 7 7 7 7
18 18 18 19 20 19 19 19 18 18 18 17 16 15 14 14 13 13 12 12 11 11 10 10 9 9 9 8 8 7 7 7 6 5 4 5 6 6 6 6 6 6 7
19 20 20 20 20 19 18 18 18 18 17 16 16 15 14 14 14 14 13 11 11 10 9 9 9 8 8 8 7 6 6 5 5 5 3 4 4 5 5 6 6 6 6